Location: Amsterdam
(30.7274°N, 84.4357°W)
Time: 07:20:56
(UTC+00:00)

Tiros 1 - Pass Details

Date: 22 February 2026
Orbit: 618 x 649 km, 48.4° (Epoch: 9 March)

Event Time Altitude Azimuth Distance (km) Brightness Sun altitude
Rises 11:10:08 0° 220° (SW) 2,928 - -13.9°
Exits shadow 11:11:20 - 219° (SW) 2,461 9.8 -13.7°
Reaches altitude 10° 11:12:29 10° 217° (SW) 2,017 9.4 -13.4°
Maximum altitude 11:17:04 65° 136° (SE) 695 7.5 -12.4°
Drops below altitude 10° 11:21:39 10° 55° (NE) 2,005 10.5 -11.4°
Sets 11:23:58 0° 52° (NE) 2,909 11.3 -11.0°
